Regional Weather Roundup
Issued by NWS

Home | Current Version | Previous Version | Graphics & Text | Print | Product List | Glossary On
Versions: 1 2 3 4 5 6 7 8 9 10 11 12 13 14 15 16 17 18 19 20 21 22 23 24 25 26 27 28 29 30 31 32 33 34 35 36 37 38 39 40 41 42 43 44 45 46 47 48 49 50
000
ASUS43 KMKX 231611
RWRWI

WISCONSIN REGIONAL WEATHER ROUNDUP
NATIONAL WEATHER SERVICE MILWAUKEE/SULLIVAN WI
1100 AM CDT SAT AUG 23 2014

NOTE: "FAIR" INDICATES FEW OR NO CLOUDS BELOW 12,000 FEET WITH NO
SIGNIFICANT WEATHER AND/OR OBSTRUCTIONS TO VISIBILITY.

WIZ001-002-006>008-014>016-023>028-231700-
NORTHWEST WISCONSIN

CITY           SKY/WX    TMP DP  RH WIND       PRES   REMARKS
SUPERIOR ARPT  CLOUDY    62  61  95 NE10G16   30.06F
ASHLAND        CLOUDY    65  62  90 NE5       30.07F
HAYWARD        CLOUDY    73  67  81 E6        30.04F
SIREN          CLOUDY    69  65  88 E6        30.03F
RICE LAKE      CLOUDY    72  67  84 E6        30.03F
LADYSMITH      CLOUDY    73  68  85 NE6       30.04F
EAU CLAIRE     CLOUDY    72  69  90 NE6       29.99F
MENOMONIE      CLOUDY    71  67  89 CALM      30.00F
NEW RICHMOND   CLOUDY    69  67  92 NE7       30.00F
OSCEOLA        CLOUDY    70  69  96 NE6       30.02F
$$

WIZ003>005-009-010-017-018-231700-
NORTH CENTRAL WISCONSIN

CITY           SKY/WX    TMP DP  RH WIND       PRES   REMARKS
WOODRUFF       CLOUDY    77  73  86 CALM      30.06S
RHINELANDER    CLOUDY    70  68  93 SE6       30.07F FOG
EAGLE RIVER    CLOUDY    71  69  92 CALM      30.06F
LAND O LAKES   CLOUDY    70  67  92 CALM      30.09S
PHILLIPS       CLOUDY    71  68  90 E3        30.05S
TOMAHAWK       CLOUDY    70  68  95 NE3       30.06S FOG
MEDFORD        CLOUDY    70  70  99 NE7       30.03F FOG
MERRILL        CLOUDY    70  70  99 E3        30.04F FOG
$$

WIZ029-030-035-036-043>047-231700-
CENTRAL WISCONSIN

CITY           SKY/WX    TMP DP  RH WIND       PRES   REMARKS
WAUSAU         CLOUDY    72  70  93 E7        30.02F FOG
MOSINEE        CLOUDY    72  72 100 E6        30.04F FOG
MARSHFIELD     CLOUDY    72  71  97 E8        30.02S FOG
STEVENS POINT  CLOUDY    69  68  98 NE6       30.03S FOG
WAUPACA        FOG       72  71  95 E3        30.02F VSB 3/4
WAUTOMA        CLOUDY    74  73  96 E5        30.02R FOG
WISC RAPIDS    CLOUDY    72  70  93 E7        30.03S FOG
CAMP DOUGLAS   CLOUDY    75  75 100 SE5       30.01R FOG
$$

WIZ011>013-019>022-031-037>040-048>050-231700-
NORTHEAST WISCONSIN

CITY           SKY/WX    TMP DP  RH WIND       PRES   REMARKS
ANTIGO         FOG       68  68 100 E7        30.06S VSB 1
STURGEON BAY   CLOUDY    72  64  78 SE6       30.06F
GREEN BAY      CLOUDY    77  71  82 E7        30.03F
MANITOWOC      CLOUDY    72  68  87 E7        30.05S
APPLETON       CLOUDY    72  70  94 VRB6      30.04S FOG
CLINTONVILLE   CLOUDY    70  70 100 E5        30.02F FOG
OSHKOSH        CLOUDY    75  72  90 SE5       30.02R
$$

WIZ032>034-041-042-053>061-231700-
SOUTHWEST WISCONSIN

CITY           SKY/WX    TMP DP  RH WIND       PRES   REMARKS
LA CROSSE      CLOUDY    75  71  87 SE5       29.98R
SPARTA         CLOUDY    73  73  98 E5        30.01R FOG
VIROQUA        CLOUDY    73  73 100 SE3       30.01R VSB 1/4
BOSCOBEL       LGT RAIN  77  75  93 CALM      29.98S FOG
PRAIRIE DU CHI HVY RAIN  72  69  92 SW9       30.00R
PLATTEVILLE    PTSUNNY   75  74  96 CALM      30.01S
$$

WIZ056-057-062-063-064-067-068-231700-
SOUTH CENTRAL WISCONSIN

CITY           SKY/WX    TMP DP  RH WIND       PRES   REMARKS
BARABOO/DELLS  CLOUDY    78  73  86 SE8       30.01R HAZE
LONE ROCK      CLOUDY    82  75  79 SE5       29.99R HX  89
WATERTOWN      CLOUDY    75  74  95 SE5       30.03R
MADISON        CLOUDY    78  74  87 SE7       30.02R HX  81
MIDDLETON      CLOUDY    78  77  97 E6        30.02R HX  81
MONROE         CLOUDY    75  73  94 CALM      30.01S FOG
JANESVILLE     CLOUDY    79  75  89 E5        30.01R FOG     HX  82
$$

WIZ051-052-058>065-066-070>072-231700-
SOUTHEAST WISCONSIN

CITY           SKY/WX    TMP DP  RH WIND       PRES   REMARKS
MILWAUKEE      FOG       73  70  90 NE5       30.04R VSB 1
WAUKESHA       FOG       72  72 100 E3        30.04R VSB 1
MILWAUKEE/TIMM CLOUDY    73  70  88 E3        30.04  FOG
RACINE         CLOUDY    73  71  93 E5        30.05R FOG
BURLINGTON     CLOUDY    74  70  87 E3        30.03R
KENOSHA        CLOUDY    74  73  97 E5        30.03R FOG
FOND DU LAC    CLOUDY    76  72  87 S6        30.03R
SHEBOYGAN      CLOUDY    74  69  85 E7        30.04R
WEST BEND      CLOUDY    72  70  94 E6        30.04R FOG
JUNEAU         CLOUDY    74  47  37 SE7       30.05R HAZE
$$

LSZ147-162-231700-
LAKE SUPERIOR

STATION/POSITION TIME  TEMP    WIND        PRES    WAVE
                       AIR SEA DIR/SP/G            HT/PER
                 (UTC) (F)     (DEG/KT/KT) (MB)    (FT/S)
W MID LAKE BUOY  1550   59 59   40/ 12/ 12 1018.3S   1/ 4
DEVILS ISLAND    1600   60      70/ 12/ 13 1018.5R
PORT WING        1540   62      40/ 11/ 13 1017.9S
SAXON HARBOR     1500   64        CALM     1017.9S
$$

LMZ867-665-643>646-231700-
LAKE MICHIGAN

STATION/POSITION TIME  TEMP    WIND        PRES    WAVE
                       AIR SEA DIR/SP/G            HT/PER
                 (UTC) (F)     (DEG/KT/KT) (MB)    (FT/S)
N MID LAKE BUOY  1550   67 66   90/ 10/ 12 1017.6R   1
NORTHPORT PIER   1500   68     140/  8/  9 1017.6F
SISTER BAY       1511   75     130/ 10/ 13   N/A
KEWAUNEE LAKESHO 1500   68     150/  2/  4 1016.7R
SHEBOYGAN LAKESH 1600   68 66  100/  5/  5 1017.5R
ATWATER BUOY     1600   71     110/  6/  6 1018.3R
MILWAUKEE LAKESH 1500   70      80/  4/  6   N/A
S MID LAKE BUOY  1550   69 69  100/ 12/ 12 1016.4R   1/ 3
KENOSHA   LAKESH 1600   71      30/  3/  4 1016.6R
$$

TC  - TEMPERATURE IN CELSIUS
VSB - VISIBILITY IN STATUTE MILES
WCI - WIND CHILL INDEX
HX  - HEAT INDEX




USA.gov is the U.S. government's official web portal to all federal, state and local government web resources and services.